LEMUR-2-ROCKETJONAH (43041 NORAD) Tracking and Keplerian Element Data

This shows tracking and keplerian element data for the satellite.

Feedback or suggestion? Click here.




ElementValue
Catalog43041
NameLEMUR-2-ROCKETJONAH
Epoch Orbit23943
Epoch Day44.82795436
Epoch Year2022
RAAN248.4937
Inclination51.6184
Eccentricity0.0009048
Argument of Perigee265.126
Mean Anonmoly94.8723
Mean Motion16.12904085
Decay Rate0.01882559
L11 43041U 17071E 22044.82795436 .01882559 31496-2 16704-2 0 9997
L22 43041 51.6184 248.4937 0009048 265.1260 94.8723 16.12904085239439



Live tracking and technical data element details for LEMUR-2-ROCKETJONAH (NORAD 43041). LEMUR-2-ROCKETJONAH can be tracked NOW for your location showing map with azimuth and elevation plus other details from your city location.







IsCatalogInMostPopularTable: catalog: 43041, numindb: 531
Update: records affected: 1



GetName: 43041 LEMUR-2-ROCKETJONAH

Hit Count: updated at: Fri, 16 May 2025 11:45:14 GMT